Location: Jastrzębia Góra
(54.8312°N, 18.3037°E)
Time: 07:14:52
(UTC+02:00)

ISS - Visible Passes

Search period start: 27 May 2018 00:00
Search period end: 06 June 2018 00:00
Orbit: 402 x 407 km, 51.6° (Epoch: 27 May)

Date Brightness Start Highest point End Pass type
(mag) Time Alt. Az. Time Alt. Az. Time Alt. Az.
27 May -3.0 00:23:00 10° W 00:25:56 31° SSW 00:26:26 29° S visible
27 May -3.5 21:54:30 10° WSW 21:57:40 46° S 22:00:50 10° E visible
27 May -3.3 23:30:47 10° W 23:33:52 38° SSW 23:35:44 19° SE visible
28 May -1.5 01:07:45 10° WSW 01:08:21 12° WSW 01:08:21 12° WSW visible
28 May -3.5 22:38:36 10° W 22:41:45 44° S 22:44:53 10° ESE visible
29 May -2.4 00:15:12 10° W 00:17:42 21° SSW 00:17:42 21° SSW visible
29 May -2.8 23:22:51 10° W 23:25:44 28° SSW 23:27:06 20° SSE visible
30 May -3.1 22:30:36 10° W 22:33:38 35° SSW 22:36:31 11° SE visible
31 May -1.7 00:07:46 10° WSW 00:09:09 13° SW 00:09:09 13° SW visible
31 May -2.1 23:15:04 10° WSW 23:17:27 19° SSW 23:18:35 16° S visible
01 Jun -2.5 22:22:37 10° W 22:25:24 26° SSW 22:28:03 11° SSE visible
02 Jun -1.5 23:07:48 10° WSW 23:09:03 12° SW 23:10:11 10° SSW visible
03 Jun -1.8 22:14:49 10° WSW 22:17:02 17° SSW 22:19:14 10° S visible
